Location: Buckeye Ditch
(40.9104°N, 122.9517°W)
Time: 12:22:28
(UTC+00:00)

Explorer 7 - Pass Details

Date: 27 May 2025
Orbit: 445 x 571 km, 50.3° (Epoch: 22 June)

Event Time Altitude Azimuth Distance (km) Brightness Sun altitude
Rises 11:14:00 0° 301° (WNW) 2,515 10.1 -14.4°
Reaches altitude 10° 11:16:31 10° 318° (NW) 1,660 9.3 -14.0°
Maximum altitude 11:19:26 21° 9° (N) 1,151 9.2 -13.6°
Drops below altitude 10° 11:22:28 10° 60° (ENE) 1,719 10.7 -13.2°
Sets 11:25:07 0° 77° (ENE) 2,633 11.4 -12.9°
